Regional Weather Roundup
Issued by NWS Mt. Holly, NJ

Home | Current Version | Previous Version | Text Only | Print | Product List | Glossary On
Versions: 1 2 3 4 5 6 7 8 9 10 11 12 13 14 15 16 17 18 19 20 21 22 23 24 25 26 27 28 29 30 31 32 33 34 35 36 37 38 39 40 41 42 43 44 45 46 47 48 49 50
000
ASUS41 KPHI 031511
RWRPHI

REGIONAL WEATHER ROUNDUP
NATIONAL WEATHER SERVICE MOUNT HOLLY NJ
1000 AM EST TUE MAR 03 2015

NOTE:  "FAIR" INDICATES FEW OR NO CLOUDS BELOW 12,000 FEET WITH NO
SIGNIFICANT WEATHER AND/OR OBSTRUCTIONS TO VISIBILITY.

 * = STATION DOES NOT REPORT PRECIPITATION (E.G. RAIN, SNOW, ETC.)
        OR FOG.

NJZ015>026-031600-
SOUTHERN NEW JERSEY

CITY           SKY/WX    TMP DP  RH WIND       PRES   REMARKS
POMONA         PTSUNNY   29  13  51 CALM      30.44R
RIO GRANDE*    CLOUDY    28  12  50 E5        30.47S WCI  23
MILLVILLE      PTSUNNY   29  12  49 SE5       30.45R WCI  24
WRIGHTSTOWN    CLOUDY    27  10  48 CALM      30.41S
MOUNT HOLLY    CLOUDY    27  10  49 NE5       30.44F WCI  22
TRENTON        CLOUDY    26   9  48 E5        30.42F WCI  20

$$
NJZ001>014-031600-
NORTHERN NEW JERSEY

CITY           SKY/WX    TMP DP  RH WIND       PRES   REMARKS
SUSSEX         CLOUDY    21   9  59 CALM      30.38F
ANDOVER*         N/A     24   8  50 CALM      30.38F
MORRISTOWN     CLOUDY    25  10  54 CALM      30.43F
NEWARK         CLOUDY    27  10  49 CALM      30.43F
TETERBORO      CLOUDY    28   9  44 CALM      30.42F
CALDWELL       CLOUDY    24   9  52 CALM      30.43F
SOMERVILLE     CLOUDY    27  10  49 CALM      30.41F
ALLAIRE*       PTSUNNY   28  10  47 CALM      30.43F
TOMS RIVER*    PTSUNNY   28  12  50 CALM      30.44S

$$
PAZ043-044-047-054-055-060>062-066>071-031600-
EASTERN PENNSYLVANIA

CITY           SKY/WX    TMP DP  RH WIND       PRES   REMARKS
PHILADELPHIA   CLOUDY    29  11  47 CALM      30.46F
NORTH PHILA    CLOUDY    29   9  43 E3        30.44F
BLUE BELL      PTSUNNY   30  12  47 SE3       30.41F
DOYLESTOWN     CLOUDY    24  10  55 CALM      30.40F
QUAKERTOWN*    CLOUDY    25  10  54 CALM      30.40F
POTTSTOWN      PTSUNNY   25  10  53 S5        30.43F WCI  19
LANCASTER      PTSUNNY   25  13  60 SE7       30.39F WCI  17
COATESVILLE    PTSUNNY   27  14  59 S7        30.40F WCI  19
READING        CLOUDY    25  10  53 MISG      30.40F
ALLENTOWN      CLOUDY    25   9  50 CALM      30.39F
MOUNT POCONO   CLOUDY    17   7  64 SE6       30.25F WCI   9
HAZLETON       CLOUDY    21   9  58 SE8       30.29F WCI  12
WILKES BARRE   CLOUDY    20   9  62 N3        30.30F

$$
DEZALL-MDZ008-012-015-019-020-031600-
DELAWARE AND EASTERN MARYLAND

CITY           SKY/WX    TMP DP  RH WIND       PRES   REMARKS
WILMINGTON     MOSUNNY   28  12  51 VRB5      30.45F WCI  23
DOVER          CLOUDY    29  15  55 E8        30.45F WCI  21
GEORGETOWN     CLOUDY    30  17  58 E6        30.45F WCI  24
EASTON         SUNNY     32  18  55 SE6       30.48F WCI  26
ABERDEEN       CLOUDY    30  14  51 SE7       30.41F WCI  23
PATUXENT       CLOUDY    31  18  58 E9        30.45S WCI  23
OCEAN CITY     PTSUNNY   32  20  61 NE6       30.46S WCI  26
WALLOPS ISLAND CLOUDY    33  23  66 E9        30.45F WCI  25
CAMBRIDGE      MOSUNNY   34  18  51 E9        30.44F WCI  26
SALISBURY      CLOUDY    34  19  54 E8        30.44F WCI  27

$$
PAZ001-021-NYZ056-072-MDZ011-DCZ001-031600-
OTHER NEARBY LOCATIONS

CITY           SKY/WX    TMP DP  RH WIND       PRES   REMARKS
HARRISBURG     CLOUDY    27  12  53 SE7       30.39F WCI  19
STATE COLLEGE  CLOUDY    19  10  68 CALM      30.26F
WILLIAMSPORT   CLOUDY    20   9  62 CALM      30.34F
BINGHAMTON     CLOUDY    15   9  76 S9        30.22F WCI   3
NEW YORK CITY  CLOUDY    30  10  43 S7        30.43F WCI  23
BALTIMORE      CLOUDY    28  13  53 E8        30.42F WCI  20
WASHINGTON DC  CLOUDY    34  16  47 SE7       30.43F WCI  28

$$


USA.gov is the U.S. government's official web portal to all federal, state and local government web resources and services.